| time (UTC) | temp F | wind direction | speed MPH | gust MPH | rain 1hr in | rain 24hr in | rain mn in | humidity % | barometer mb |
| 20260906023024 | 76 | 11 | 0.0 | 4.0 | 0.00 | 0.00 | 0.00 | 85 | 1013.6 |
| 20260906022512 | 76 | 11 | 2.0 | 5.0 | 0.00 | 0.00 | 0.00 | 86 | 1013.6 |
| 20260906022012 | 76 | 19 | 3.0 | 5.0 | 0.00 | 0.00 | 0.00 | 85 | 1013.6 |
| 20260906021529 | 76 | 23 | 2.0 | 5.0 | 0.00 | 0.00 | 0.00 | 84 | 1013.5 |
| 20260906021015 | 77 | 90 | 0.0 | 0.0 | 0.00 | 0.00 | 0.00 | 83 | 1013.5 |
| 20260906020516 | 77 | 92 | 0.0 | 0.0 | 0.00 | 0.00 | 0.00 | 83 | 1013.3 |
| 20260906020043 | 77 | 92 | 0.0 | 0.0 | 0.00 | 0.00 | 0.00 | 83 | 1013.1 |
| 20260906015509 | 78 | 92 | 0.0 | 0.0 | 0.00 | 0.00 | 0.00 | 82 | 1013.1 |
| 20260906015007 | 78 | 92 | 0.0 | 0.0 | 0.00 | 0.00 | 0.00 | 82 | 1013.1 |
| 20260906014514 | 78 | 92 | 0.0 | 0.0 | 0.00 | 0.00 | 0.00 | 81 | 1013.0 |
| 20260906014012 | 78 | 92 | 0.0 | 0.0 | 0.00 | 0.00 | 0.00 | 81 | 1013.0 |
| 20260906013506 | 78 | 92 | 0.0 | 0.0 | 0.00 | 0.00 | 0.00 | 81 | 1012.9 |
| 20260906013019 | 78 | 92 | 0.0 | 0.0 | 0.00 | 0.00 | 0.00 | 82 | 1012.9 |
| 20260906012510 | 78 | 92 | 0.0 | 0.0 | 0.00 | 0.00 | 0.00 | 81 | 1012.9 |
| 20260906012014 | 78 | 92 | 0.0 | 2.0 | 0.00 | 0.00 | 0.00 | 81 | 1012.9 |
| 20260906011527 | 78 | 92 | 0.0 | 3.0 | 0.00 | 0.00 | 0.00 | 80 | 1012.9 |
| 20260906011017 | 78 | 92 | 1.0 | 3.0 | 0.00 | 0.00 | 0.00 | 81 | 1012.8 |
| 20260906010516 | 78 | 92 | 0.0 | 1.0 | 0.00 | 0.00 | 0.00 | 79 | 1012.9 |
| 20260906010006 | 78 | 92 | 0.0 | 3.0 | 0.00 | 0.00 | 0.00 | 79 | 1012.9 |
| 20260906005502 | 79 | 92 | 0.0 | 3.0 | 0.00 | 0.00 | 0.00 | 79 | 1013.1 |
| 20260906005005 | 79 | 92 | 0.0 | 3.0 | 0.00 | 0.00 | 0.00 | 77 | 1013.1 |
| 20260906004510 | 80 | 92 | 0.0 | 3.0 | 0.00 | 0.00 | 0.00 | 77 | 1013.1 |
| 20260906004006 | 80 | 92 | 0.0 | 3.0 | 0.00 | 0.00 | 0.00 | 77 | 1013.1 |
| 20260906003506 | 80 | 92 | 1.0 | 3.0 | 0.00 | 0.00 | 0.00 | 76 | 1013.2 |
| 20260906003019 | 80 | 92 | 0.0 | 3.0 | 0.00 | 0.00 | 0.00 | 75 | 1013.3 |
| 20260906002505 | 81 | 92 | 1.0 | 3.0 | 0.00 | 0.00 | 0.00 | 74 | 1013.2 |
| 20260906002003 | 82 | 51 | 0.0 | 0.0 | 0.00 | 0.00 | 0.00 | 73 | 1013.2 |
| 20260906001503 | 83 | 51 | 0.0 | 0.0 | 0.00 | 0.00 | 0.00 | 71 | 1013.1 |
| 20260906001002 | 83 | 51 | 0.0 | 1.0 | 0.00 | 0.00 | 0.00 | 71 | 1013.2 |
| 20260906000503 | 84 | 51 | 0.0 | 1.0 | 0.00 | 0.00 | 0.00 | 68 | 1013.2 |
| 20260906000004 | 84 | 51 | 0.0 | 2.0 | 0.00 | 0.00 | 0.00 | 67 | 1013.1 |
| 20260905235503 | 85 | 51 | 0.0 | 2.0 | 0.00 | 0.00 | 0.00 | 66 | 1013.2 |
| 20260905235004 | 86 | 51 | 1.0 | 2.0 | 0.00 | 0.00 | 0.00 | 65 | 1013.1 |
| 20260905234510 | 87 | 238 | 0.0 | 1.0 | 0.00 | 0.00 | 0.00 | 63 | 1013.0 |
| 20260905234004 | 88 | 234 | 0.0 | 1.0 | 0.00 | 0.00 | 0.00 | 62 | 1013.1 |
| 20260905233507 | 88 | 235 | 0.0 | 1.0 | 0.00 | 0.00 | 0.00 | 61 | 1013.0 |
| 20260905233017 | 89 | 205 | 0.0 | 0.0 | 0.00 | 0.00 | 0.00 | 59 | 1012.8 |
| 20260905232510 | 90 | 205 | 0.0 | 0.0 | 0.00 | 0.00 | 0.00 | 58 | 1012.8 |
| 20260905232007 | 90 | 205 | 0.0 | 0.0 | 0.00 | 0.00 | 0.00 | 58 | 1012.8 |
| 20260905231513 | 90 | 205 | 0.0 | 1.0 | 0.00 | 0.00 | 0.00 | 58 | 1012.8 |
| 20260905231005 | 90 | 205 | 0.0 | 2.0 | 0.00 | 0.00 | 0.00 | 57 | 1012.8 |
| 20260905230507 | 90 | 247 | 0.0 | 3.0 | 0.00 | 0.00 | 0.00 | 60 | 1012.9 |
| 20260905230003 | 90 | 243 | 1.0 | 3.0 | 0.00 | 0.00 | 0.00 | 57 | 1012.9 |
| 20260905225502 | 90 | 250 | 2.0 | 3.0 | 0.00 | 0.00 | 0.00 | 57 | 1012.8 |
| 20260905225004 | 91 | 250 | 0.0 | 3.0 | 0.00 | 0.00 | 0.00 | 57 | 1012.8 |
| 20260905224504 | 91 | 250 | 1.0 | 3.0 | 0.00 | 0.00 | 0.00 | 55 | 1012.7 |
| 20260905224002 | 91 | 250 | 0.0 | 3.0 | 0.00 | 0.00 | 0.00 | 56 | 1012.7 |
| 20260905223505 | 92 | 309 | 0.0 | 2.0 | 0.00 | 0.00 | 0.00 | 55 | 1012.7 |
| 20260905223029 | 92 | 309 | 0.0 | 3.0 | 0.00 | 0.00 | 0.00 | 55 | 1012.8 |
| 20260905222509 | 92 | 31 | 0.0 | 3.0 | 0.00 | 0.00 | 0.00 | 54 | 1012.8 |
| 20260905222009 | 91 | 212 | 0.0 | 3.0 | 0.00 | 0.00 | 0.00 | 55 | 1012.8 |
| 20260905221534 | 91 | 212 | 1.0 | 4.0 | 0.00 | 0.00 | 0.00 | 56 | 1012.9 |
| 20260905221012 | 91 | 212 | 0.0 | 4.0 | 0.00 | 0.00 | 0.00 | 54 | 1013.0 |
| 20260905220510 | 91 | 212 | 2.0 | 4.0 | 0.00 | 0.00 | 0.00 | 56 | 1013.0 |
| 20260905220019 | 91 | 212 | 0.0 | 3.0 | 0.00 | 0.00 | 0.00 | 54 | 1013.1 |
| 20260905215511 | 91 | 212 | 1.0 | 4.0 | 0.00 | 0.00 | 0.00 | 54 | 1013.1 |
| 20260905215007 | 90 | 212 | 2.0 | 5.0 | 0.00 | 0.00 | 0.00 | 56 | 1013.0 |
| 20260905214506 | 90 | 212 | 2.0 | 6.0 | 0.00 | 0.00 | 0.00 | 54 | 1013.1 |
| 20260905214003 | 90 | 182 | 1.0 | 6.0 | 0.00 | 0.00 | 0.00 | 56 | 1013.2 |
| 20260905213504 | 90 | 159 | 2.0 | 6.0 | 0.00 | 0.00 | 0.00 | 55 | 1013.3 |
| 20260905213011 | 89 | 154 | 2.0 | 5.0 | 0.00 | 0.00 | 0.00 | 55 | 1013.2 |
| 20260905212504 | 90 | 145 | 3.0 | 5.0 | 0.00 | 0.00 | 0.00 | 52 | 1013.4 |
| 20260905212005 | 90 | 209 | 3.0 | 4.0 | 0.00 | 0.00 | 0.00 | 51 | 1013.4 |
| 20260905211534 | 89 | 209 | 1.0 | 4.0 | 0.00 | 0.00 | 0.00 | 53 | 1013.5 |
| 20260905211008 | 88 | 209 | 1.0 | 4.0 | 0.00 | 0.00 | 0.00 | 55 | 1013.5 |
| 20260905210508 | 89 | 209 | 0.0 | 5.0 | 0.00 | 0.00 | 0.00 | 55 | 1013.6 |
| 20260905210019 | 88 | 209 | 2.0 | 5.0 | 0.00 | 0.00 | 0.00 | 55 | 1013.6 |
| 20260905205511 | 88 | 219 | 3.0 | 5.0 | 0.00 | 0.00 | 0.00 | 55 | 1013.5 |
| 20260905205011 | 89 | 219 | 1.0 | 7.0 | 0.00 | 0.00 | 0.00 | 55 | 1013.4 |
| 20260905204524 | 89 | 219 | 1.0 | 7.0 | 0.00 | 0.00 | 0.00 | 54 | 1013.4 |
| 20260905204011 | 90 | 224 | 2.0 | 7.0 | 0.00 | 0.00 | 0.00 | 53 | 1013.5 |
| 20260905203513 | 89 | 191 | 1.0 | 4.0 | 0.00 | 0.00 | 0.00 | 57 | 1013.7 |
| 20260905203030 | 89 | 191 | 2.0 | 5.0 | 0.00 | 0.00 | 0.00 | 55 | 1013.7 |
| 20260905202502 | 88 | 191 | 2.0 | 5.0 | 0.00 | 0.00 | 0.00 | 55 | 1013.7 |
| 20260905202006 | 87 | 223 | 0.0 | 2.0 | 0.00 | 0.00 | 0.00 | 60 | 1013.8 |
| 20260905201512 | 85 | 223 | 0.0 | 2.0 | 0.00 | 0.00 | 0.00 | 63 | 1013.9 |
| 20260905201003 | 85 | 223 | 0.0 | 2.0 | 0.00 | 0.00 | 0.00 | 63 | 1013.8 |
| 20260905200509 | 85 | 223 | 1.0 | 2.0 | 0.00 | 0.00 | 0.00 | 61 | 1013.7 |
| 20260905200021 | 86 | 223 | 0.0 | 5.0 | 0.00 | 0.00 | 0.00 | 62 | 1013.8 |
| 20260905195512 | 86 | 223 | 1.0 | 7.0 | 0.00 | 0.00 | 0.00 | 59 | 1013.9 |
| 20260905195016 | 85 | 223 | 3.0 | 7.0 | 0.00 | 0.00 | 0.00 | 60 | 1014.0 |
| 20260905194523 | 83 | 255 | 3.0 | 7.0 | 0.00 | 0.00 | 0.00 | 63 | 1014.2 |
| 20260905194013 | 82 | 210 | 0.0 | 5.0 | 0.00 | 0.00 | 0.00 | 65 | 1014.3 |
| 20260905193511 | 82 | 210 | 2.0 | 8.0 | 0.00 | 0.00 | 0.00 | 65 | 1014.3 |
| 20260905193027 | 82 | 231 | 2.0 | 10.0 | 0.00 | 0.00 | 0.00 | 64 | 1014.5 |
| 20260905192513 | 83 | 267 | 5.0 | 10.0 | 0.00 | 0.00 | 0.00 | 64 | 1014.6 |
| 20260905192013 | 83 | 257 | 5.0 | 10.0 | 0.00 | 0.00 | 0.00 | 65 | 1014.8 |
| 20260905191527 | 84 | 294 | 3.0 | 9.0 | 0.00 | 0.00 | 0.00 | 67 | 1014.8 |
| 20260905191011 | 84 | 287 | 2.0 | 5.0 | 0.00 | 0.00 | 0.00 | 70 | 1014.8 |
| 20260905190507 | 85 | 279 | 2.0 | 6.0 | 0.00 | 0.00 | 0.00 | 70 | 1014.9 |
| 20260905190015 | 85 | 269 | 0.0 | 6.0 | 0.00 | 0.00 | 0.00 | 71 | 1014.7 |
| 20260905185510 | 86 | 259 | 2.0 | 5.0 | 0.00 | 0.00 | 0.00 | 70 | 1014.5 |
| 20260905185008 | 87 | 236 | 2.0 | 10.0 | 0.00 | 0.00 | 0.00 | 68 | 1014.5 |
| 20260905184521 | 87 | 310 | 3.0 | 10.0 | 0.00 | 0.00 | 0.00 | 68 | 1014.8 |
| 20260905184010 | 88 | 327 | 3.0 | 10.0 | 0.00 | 0.00 | 0.00 | 67 | 1014.7 |
| 20260905183513 | 89 | 262 | 0.0 | 3.0 | 0.00 | 0.00 | 0.00 | 66 | 1014.4 |
| 20260905183028 | 89 | 262 | 1.0 | 5.0 | 0.00 | 0.00 | 0.00 | 65 | 1014.6 |
| 20260905182513 | 89 | 304 | 2.0 | 5.0 | 0.00 | 0.00 | 0.00 | 63 | 1014.5 |
| 20260905182016 | 89 | 305 | 1.0 | 4.0 | 0.00 | 0.00 | 0.00 | 63 | 1014.6 |
| 20260905181531 | 90 | 5 | 1.0 | 5.0 | 0.00 | 0.00 | 0.00 | 63 | 1014.9 |
| 20260905181015 | 90 | 326 | 2.0 | 8.0 | 0.00 | 0.00 | 0.00 | 61 | 1014.8 |
| 20260905180517 | 90 | 333 | 2.0 | 8.0 | 0.00 | 0.00 | 0.00 | 61 | 1014.7 |
| 20260905180030 | 91 | 325 | 2.0 | 8.0 | 0.00 | 0.00 | 0.00 | 60 | 1014.9 |
| 20260905175516 | 91 | 10 | 4.0 | 9.0 | 0.00 | 0.00 | 0.00 | 58 | 1014.9 |
| 20260905175008 | 91 | 355 | 4.0 | 9.0 | 0.00 | 0.00 | 0.00 | 58 | 1014.9 |
| 20260905174518 | 92 | 355 | 3.0 | 9.0 | 0.00 | 0.00 | 0.00 | 57 | 1014.9 |
| 20260905174011 | 93 | 293 | 4.0 | 9.0 | 0.00 | 0.00 | 0.00 | 55 | 1014.9 |
| 20260905173510 | 94 | 342 | 6.0 | 13.0 | 0.00 | 0.00 | 0.00 | 57 | 1014.8 |
| 20260905173020 | 93 | 25 | 4.0 | 13.0 | 0.00 | 0.00 | 0.00 | 56 | 1014.9 |
| 20260905172512 | 94 | 329 | 3.0 | 8.0 | 0.00 | 0.00 | 0.00 | 53 | 1014.9 |
| 20260905172014 | 94 | 355 | 3.0 | 8.0 | 0.00 | 0.00 | 0.00 | 56 | 1015.0 |
| 20260905171541 | 94 | 320 | 1.0 | 6.0 | 0.00 | 0.00 | 0.00 | 58 | 1015.1 |
| 20260905171018 | 94 | 324 | 0.0 | 9.0 | 0.00 | 0.00 | 0.00 | 59 | 1015.1 |
| 20260905170514 | 93 | 280 | 3.0 | 9.0 | 0.00 | 0.00 | 0.00 | 58 | 1015.2 |
| 20260905170032 | 93 | 223 | 1.0 | 9.0 | 0.00 | 0.00 | 0.00 | 57 | 1015.2 |
| 20260905165513 | 94 | 346 | 4.0 | 9.0 | 0.00 | 0.00 | 0.00 | 57 | 1015.3 |
| 20260905165013 | 93 | 309 | 1.0 | 4.0 | 0.00 | 0.00 | 0.00 | 60 | 1015.4 |
| 20260905164532 | 92 | 80 | 1.0 | 8.0 | 0.00 | 0.00 | 0.00 | 61 | 1015.3 |
| 20260905164018 | 92 | 32 | 4.0 | 8.0 | 0.00 | 0.00 | 0.00 | 59 | 1015.5 |
| 20260905163517 | 92 | 34 | 2.0 | 8.0 | 0.00 | 0.00 | 0.00 | 62 | 1015.5 |
| 20260905163020 | 91 | 247 | 2.0 | 11.0 | 0.00 | 0.00 | 0.00 | 58 | 1015.7 |
| 20260905162510 | 92 | 301 | 5.0 | 11.0 | 0.00 | 0.00 | 0.00 | 59 | 1015.8 |
| 20260905162015 | 91 | 46 | 2.0 | 9.0 | 0.00 | 0.00 | 0.00 | 61 | 1015.8 |
| 20260905161535 | 91 | 355 | 4.0 | 9.0 | 0.00 | 0.00 | 0.00 | 59 | 1015.8 |
| 20260905161015 | 91 | 307 | 1.0 | 8.0 | 0.00 | 0.00 | 0.00 | 62 | 1015.7 |
| 20260905160512 | 91 | 298 | 2.0 | 8.0 | 0.00 | 0.00 | 0.00 | 62 | 1015.8 |
| 20260905160006 | 91 | 5 | 3.0 | 8.0 | 0.00 | 0.00 | 0.00 | 62 | 1016.0 |
| 20260905155503 | 91 | 319 | 1.0 | 6.0 | 0.00 | 0.00 | 0.00 | 61 | 1016.0 |
| 20260905155003 | 91 | 317 | 1.0 | 6.0 | 0.00 | 0.00 | 0.00 | 68 | 1016.0 |
| 20260905154540 | 90 | 262 | 1.0 | 6.0 | 0.00 | 0.00 | 0.00 | 63 | 1016.0 |
| 20260905154004 | 89 | 248 | 1.0 | 6.0 | 0.00 | 0.00 | 0.00 | 65 | 1016.0 |
| 20260905153510 | 89 | 273 | 0.0 | 4.0 | 0.00 | 0.00 | 0.00 | 66 | 1016.0 |
| 20260905153017 | 89 | 221 | 2.0 | 5.0 | 0.00 | 0.00 | 0.00 | 67 | 1016.0 |
| 20260905152504 | 88 | 221 | 2.0 | 5.0 | 0.00 | 0.00 | 0.00 | 68 | 1016.1 |
| 20260905152002 | 89 | 233 | 2.0 | 4.0 | 0.00 | 0.00 | 0.00 | 65 | 1016.1 |
| 20260905151503 | 88 | 280 | 1.0 | 4.0 | 0.00 | 0.00 | 0.00 | 68 | 1016.2 |
| 20260905151002 | 87 | 217 | 1.0 | 3.0 | 0.00 | 0.00 | 0.00 | 67 | 1016.1 |
| 20260905150502 | 87 | 217 | 2.0 | 3.0 | 0.00 | 0.00 | 0.00 | 68 | 1016.3 |
| 20260905150003 | 87 | 217 | 1.0 | 5.0 | 0.00 | 0.00 | 0.00 | 68 | 1016.2 |
| 20260905145503 | 86 | 217 | 2.0 | 5.0 | 0.00 | 0.00 | 0.00 | 69 | 1016.1 |
| 20260905145004 | 86 | 217 | 0.0 | 3.0 | 0.00 | 0.00 | 0.00 | 72 | 1016.3 |
| 20260905144507 | 84 | 217 | 1.0 | 3.0 | 0.00 | 0.00 | 0.00 | 74 | 1016.3 |
| 20260905144003 | 83 | 217 | 1.0 | 3.0 | 0.00 | 0.00 | 0.00 | 76 | 1016.2 |
| 20260905143505 | 82 | 217 | 1.0 | 5.0 | 0.00 | 0.00 | 0.00 | 79 | 1016.4 |
| 20260905143012 | 81 | 217 | 1.0 | 5.0 | 0.00 | 0.00 | 0.00 | 81 | 1016.5 |
| 20260905142504 | 80 | 217 | 2.0 | 4.0 | 0.00 | 0.00 | 0.00 | 82 | 1016.4 |
| 20260905142012 | 79 | 232 | 1.0 | 4.0 | 0.00 | 0.00 | 0.00 | 86 | 1016.4 |
| 20260905141523 | 78 | 232 | 0.0 | 0.0 | 0.00 | 0.00 | 0.00 | 90 | 1016.5 |
| 20260905141010 | 77 | 232 | 0.0 | 1.0 | 0.00 | 0.00 | 0.00 | 92 | 1016.5 |
| 20260905140503 | 76 | 232 | 0.0 | 1.0 | 0.00 | 0.00 | 0.00 | 95 | 1016.5 |
| 20260905140004 | 76 | 232 | 0.0 | 0.0 | 0.00 | 0.00 | 0.00 | 95 | 1016.5 |
| 20260905135503 | 75 | 74 | 0.0 | 0.0 | 0.00 | 0.00 | 0.00 | 96 | 1016.6 |
| 20260905135004 | 75 | 74 | 0.0 | 0.0 | 0.00 | 0.00 | 0.00 | 96 | 1016.6 |
| 20260905134503 | 75 | 74 | 0.0 | 0.0 | 0.00 | 0.00 | 0.00 | 96 | 1016.6 |
| 20260905134005 | 74 | 74 | 0.0 | 0.0 | 0.00 | 0.00 | 0.00 | 96 | 1016.6 |
| 20260905133503 | 74 | 78 | 0.0 | 0.0 | 0.00 | 0.00 | 0.00 | 96 | 1016.6 |
| 20260905133011 | 74 | 69 | 0.0 | 0.0 | 0.00 | 0.00 | 0.00 | 96 | 1016.7 |
| 20260905132506 | 74 | 63 | 0.0 | 0.0 | 0.00 | 0.00 | 0.00 | 96 | 1016.7 |
| 20260905132010 | 74 | 63 | 0.0 | 0.0 | 0.00 | 0.00 | 0.00 | 96 | 1016.7 |
| 20260905131514 | 73 | 63 | 0.0 | 0.0 | 0.00 | 0.00 | 0.00 | 96 | 1016.8 |
| 20260905131009 | 73 | 63 | 0.0 | 0.0 | 0.00 | 0.00 | 0.00 | 96 | 1016.8 |
| 20260905130509 | 73 | 63 | 0.0 | 0.0 | 0.00 | 0.00 | 0.00 | 96 | 1016.8 |
| 20260905130024 | 73 | 63 | 0.0 | 0.0 | 0.00 | 0.00 | 0.00 | 96 | 1016.8 |
| 20260905125513 | 73 | 63 | 0.0 | 0.0 | 0.00 | 0.00 | 0.00 | 96 | 1016.8 |
| 20260905125003 | 73 | 43 | 0.0 | 0.0 | 0.00 | 0.00 | 0.00 | 96 | 1016.9 |
| 20260905124503 | 73 | 45 | 0.0 | 0.0 | 0.00 | 0.00 | 0.00 | 96 | 1016.9 |
| 20260905124002 | 73 | 45 | 0.0 | 0.0 | 0.00 | 0.00 | 0.00 | 96 | 1016.8 |
| 20260905123504 | 72 | 45 | 0.0 | 0.0 | 0.00 | 0.00 | 0.00 | 96 | 1016.8 |
| 20260905123008 | 72 | 192 | 0.0 | 0.0 | 0.00 | 0.00 | 0.00 | 96 | 1016.8 |
| 20260905122506 | 72 | 192 | 0.0 | 0.0 | 0.00 | 0.00 | 0.00 | 96 | 1016.7 |
| 20260905122006 | 72 | 192 | 0.0 | 0.0 | 0.00 | 0.00 | 0.00 | 96 | 1016.7 |
| 20260905121512 | 72 | 192 | 0.0 | 0.0 | 0.00 | 0.00 | 0.00 | 96 | 1016.7 |
| 20260905121007 | 72 | 192 | 0.0 | 0.0 | 0.00 | 0.00 | 0.00 | 96 | 1016.6 |
| 20260905120508 | 72 | 192 | 0.0 | 0.0 | 0.00 | 0.00 | 0.00 | 96 | 1016.5 |
| 20260905120015 | 72 | 192 | 0.0 | 0.0 | 0.00 | 0.00 | 0.00 | 95 | 1016.5 |
| 20260905115508 | 72 | 192 | 0.0 | 0.0 | 0.00 | 0.00 | 0.00 | 95 | 1016.4 |
| 20260905115010 | 71 | 192 | 0.0 | 0.0 | 0.00 | 0.00 | 0.00 | 95 | 1016.3 |
| 20260905114525 | 71 | 192 | 0.0 | 0.0 | 0.00 | 0.00 | 0.00 | 95 | 1016.3 |
| 20260905114013 | 71 | 192 | 0.0 | 0.0 | 0.00 | 0.00 | 0.00 | 95 | 1016.1 |
| 20260905113513 | 71 | 192 | 0.0 | 0.0 | 0.00 | 0.00 | 0.00 | 95 | 1016.0 |
| 20260905113008 | 71 | 192 | 0.0 | 0.0 | 0.00 | 0.00 | 0.00 | 95 | 1016.0 |
| 20260905112502 | 71 | 192 | 0.0 | 0.0 | 0.00 | 0.00 | 0.00 | 95 | 1016.0 |
| 20260905112003 | 71 | 192 | 0.0 | 0.0 | 0.00 | 0.00 | 0.00 | 94 | 1015.9 |
| 20260905111510 | 71 | 192 | 0.0 | 0.0 | 0.00 | 0.00 | 0.00 | 94 | 1015.9 |
| 20260905111003 | 71 | 192 | 0.0 | 0.0 | 0.00 | 0.00 | 0.00 | 94 | 1015.9 |
| 20260905110509 | 71 | 192 | 0.0 | 0.0 | 0.00 | 0.00 | 0.00 | 94 | 1015.8 |
| 20260905110016 | 71 | 192 | 0.0 | 0.0 | 0.00 | 0.00 | 0.00 | 94 | 1015.7 |
| 20260905105506 | 71 | 192 | 0.0 | 0.0 | 0.00 | 0.00 | 0.00 | 94 | 1015.7 |
| 20260905105010 | 71 | 192 | 0.0 | 0.0 | 0.00 | 0.00 | 0.00 | 94 | 1015.6 |
| 20260905104535 | 71 | 192 | 0.0 | 0.0 | 0.00 | 0.00 | 0.00 | 94 | 1015.6 |
| 20260905104011 | 71 | 192 | 0.0 | 0.0 | 0.00 | 0.00 | 0.00 | 93 | 1015.5 |
| 20260905103513 | 71 | 192 | 0.0 | 0.0 | 0.00 | 0.00 | 0.00 | 93 | 1015.5 |
| 20260905103032 | 71 | 192 | 0.0 | 0.0 | 0.00 | 0.00 | 0.00 | 93 | 1015.4 |
| 20260905102515 | 71 | 192 | 0.0 | 0.0 | 0.00 | 0.00 | 0.00 | 93 | 1015.3 |
| 20260905102015 | 71 | 192 | 0.0 | 0.0 | 0.00 | 0.00 | 0.00 | 93 | 1015.4 |
| 20260905101531 | 71 | 192 | 0.0 | 0.0 | 0.00 | 0.00 | 0.00 | 93 | 1015.3 |
| 20260905101003 | 71 | 192 | 0.0 | 0.0 | 0.00 | 0.00 | 0.00 | 92 | 1015.3 |
| 20260905100502 | 71 | 192 | 0.0 | 0.0 | 0.00 | 0.00 | 0.00 | 93 | 1015.3 |
| 20260905100011 | 71 | 192 | 0.0 | 0.0 | 0.00 | 0.00 | 0.00 | 93 | 1015.3 |
| 20260905095507 | 71 | 192 | 0.0 | 0.0 | 0.00 | 0.00 | 0.00 | 93 | 1015.3 |
| 20260905095007 | 71 | 192 | 0.0 | 0.0 | 0.00 | 0.00 | 0.00 | 92 | 1015.2 |
| 20260905094519 | 71 | 192 | 0.0 | 0.0 | 0.00 | 0.00 | 0.00 | 92 | 1015.2 |
| 20260905094009 | 71 | 192 | 0.0 | 0.0 | 0.00 | 0.00 | 0.00 | 92 | 1015.2 |
| 20260905093511 | 71 | 192 | 0.0 | 0.0 | 0.00 | 0.00 | 0.00 | 92 | 1015.2 |
| 20260905093024 | 71 | 192 | 0.0 | 0.0 | 0.00 | 0.00 | 0.00 | 92 | 1015.1 |
| 20260905092519 | 71 | 192 | 0.0 | 0.0 | 0.00 | 0.00 | 0.00 | 92 | 1015.1 |
| 20260905092014 | 72 | 192 | 0.0 | 0.0 | 0.00 | 0.00 | 0.00 | 92 | 1015.0 |
| 20260905091527 | 72 | 192 | 0.0 | 0.0 | 0.00 | 0.00 | 0.00 | 92 | 1015.0 |
| 20260905091017 | 72 | 192 | 0.0 | 0.0 | 0.00 | 0.00 | 0.00 | 92 | 1015.0 |
| 20260905090513 | 72 | 192 | 0.0 | 0.0 | 0.00 | 0.00 | 0.00 | 92 | 1015.0 |
| 20260905090033 | 72 | 192 | 0.0 | 0.0 | 0.00 | 0.00 | 0.00 | 92 | 1015.0 |
| 20260905085503 | 72 | 192 | 0.0 | 0.0 | 0.00 | 0.00 | 0.00 | 92 | 1015.0 |
| 20260905085006 | 72 | 192 | 0.0 | 0.0 | 0.00 | 0.00 | 0.00 | 92 | 1015.0 |
| 20260905084522 | 72 | 192 | 0.0 | 0.0 | 0.00 | 0.00 | 0.00 | 92 | 1015.1 |
| 20260905084009 | 72 | 192 | 0.0 | 0.0 | 0.00 | 0.00 | 0.00 | 92 | 1015.1 |
| 20260905083508 | 72 | 192 | 0.0 | 0.0 | 0.00 | 0.00 | 0.00 | 92 | 1015.1 |
| 20260905083023 | 72 | 192 | 0.0 | 0.0 | 0.00 | 0.00 | 0.00 | 92 | 1015.0 |
| 20260905082512 | 72 | 192 | 0.0 | 0.0 | 0.00 | 0.00 | 0.00 | 92 | 1015.1 |
| 20260905082012 | 72 | 192 | 0.0 | 0.0 | 0.00 | 0.00 | 0.00 | 92 | 1015.2 |
| 20260905081527 | 72 | 192 | 0.0 | 0.0 | 0.00 | 0.00 | 0.00 | 92 | 1015.3 |
| 20260905081016 | 73 | 192 | 0.0 | 0.0 | 0.00 | 0.00 | 0.00 | 92 | 1015.2 |
| 20260905080513 | 72 | 192 | 0.0 | 0.0 | 0.00 | 0.00 | 0.00 | 92 | 1015.2 |
| 20260905080045 | 72 | 192 | 0.0 | 0.0 | 0.00 | 0.00 | 0.00 | 92 | 1015.2 |
| 20260905075514 | 72 | 192 | 0.0 | 0.0 | 0.00 | 0.00 | 0.00 | 92 | 1015.3 |
| 20260905075017 | 72 | 192 | 0.0 | 0.0 | 0.00 | 0.00 | 0.00 | 92 | 1015.3 |
| 20260905074531 | 72 | 192 | 0.0 | 0.0 | 0.00 | 0.00 | 0.00 | 92 | 1015.3 |
| 20260905074017 | 72 | 192 | 0.0 | 0.0 | 0.00 | 0.00 | 0.00 | 92 | 1015.3 |
| 20260905073506 | 72 | 192 | 0.0 | 0.0 | 0.00 | 0.00 | 0.00 | 92 | 1015.5 |
| 20260905073034 | 73 | 192 | 0.0 | 0.0 | 0.00 | 0.00 | 0.00 | 92 | 1015.4 |
| 20260905072510 | 73 | 192 | 0.0 | 0.0 | 0.00 | 0.00 | 0.00 | 92 | 1015.5 |
| 20260905072009 | 73 | 192 | 0.0 | 0.0 | 0.00 | 0.00 | 0.00 | 92 | 1015.5 |
| 20260905071524 | 73 | 192 | 0.0 | 0.0 | 0.00 | 0.00 | 0.00 | 92 | 1015.5 |
| 20260905071011 | 72 | 192 | 0.0 | 0.0 | 0.00 | 0.00 | 0.00 | 91 | 1015.6 |
| 20260905070516 | 73 | 192 | 0.0 | 0.0 | 0.00 | 0.00 | 0.00 | 91 | 1015.6 |
| 20260905070004 | 73 | 192 | 0.0 | 0.0 | 0.00 | 0.00 | 0.00 | 91 | 1015.6 |
| 20260905065503 | 73 | 192 | 0.0 | 0.0 | 0.00 | 0.00 | 0.00 | 91 | 1015.6 |
| 20260905065003 | 73 | 192 | 0.0 | 0.0 | 0.00 | 0.00 | 0.00 | 91 | 1015.6 |
| 20260905064510 | 73 | 192 | 0.0 | 0.0 | 0.00 | 0.00 | 0.00 | 91 | 1015.6 |
| 20260905064006 | 73 | 192 | 0.0 | 0.0 | 0.00 | 0.00 | 0.00 | 91 | 1015.7 |
| 20260905063507 | 73 | 192 | 0.0 | 0.0 | 0.00 | 0.00 | 0.00 | 91 | 1015.7 |
| 20260905063003 | 73 | 192 | 0.0 | 0.0 | 0.00 | 0.00 | 0.00 | 91 | 1015.7 |
| 20260905062501 | 73 | 192 | 0.0 | 0.0 | 0.00 | 0.00 | 0.00 | 91 | 1015.8 |
| 20260905062005 | 73 | 192 | 0.0 | 0.0 | 0.00 | 0.00 | 0.00 | 91 | 1015.8 |
| 20260905061503 | 73 | 192 | 0.0 | 0.0 | 0.00 | 0.00 | 0.00 | 91 | 1015.8 |
| 20260905061002 | 73 | 192 | 0.0 | 0.0 | 0.00 | 0.00 | 0.00 | 91 | 1015.9 |
| 20260905060502 | 73 | 192 | 0.0 | 0.0 | 0.00 | 0.00 | 0.00 | 91 | 1016.0 |
| 20260905060003 | 73 | 192 | 0.0 | 0.0 | 0.00 | 0.00 | 0.00 | 91 | 1015.9 |
| 20260905055502 | 74 | 192 | 0.0 | 0.0 | 0.00 | 0.00 | 0.00 | 91 | 1015.9 |
| 20260905055002 | 74 | 192 | 0.0 | 0.0 | 0.00 | 0.00 | 0.00 | 90 | 1015.9 |
| 20260905054507 | 74 | 192 | 0.0 | 0.0 | 0.00 | 0.00 | 0.00 | 90 | 1016.0 |
| 20260905054003 | 74 | 192 | 0.0 | 0.0 | 0.00 | 0.00 | 0.00 | 90 | 1016.0 |
| 20260905053503 | 74 | 192 | 0.0 | 0.0 | 0.00 | 0.00 | 0.00 | 90 | 1016.0 |
| 20260905053019 | 74 | 192 | 0.0 | 0.0 | 0.00 | 0.00 | 0.00 | 90 | 1016.0 |
| 20260905052506 | 74 | 192 | 0.0 | 0.0 | 0.00 | 0.00 | 0.00 | 90 | 1016.0 |
| 20260905052006 | 74 | 192 | 0.0 | 0.0 | 0.00 | 0.00 | 0.00 | 90 | 1016.1 |
| 20260905051517 | 74 | 192 | 0.0 | 0.0 | 0.00 | 0.00 | 0.00 | 89 | 1016.1 |
| 20260905051002 | 74 | 192 | 0.0 | 2.0 | 0.00 | 0.00 | 0.00 | 89 | 1016.1 |
| 20260905050505 | 74 | 192 | 0.0 | 2.0 | 0.00 | 0.00 | 0.00 | 89 | 1016.1 |
| 20260905050007 | 75 | 192 | 0.0 | 1.0 | 0.00 | 0.00 | 0.00 | 89 | 1016.0 |
| 20260905045503 | 75 | 192 | 0.0 | 1.0 | 0.00 | 0.00 | 0.00 | 89 | 1016.0 |
| 20260905045002 | 75 | 192 | 0.0 | 1.0 | 0.00 | 0.00 | 0.00 | 89 | 1016.0 |
| 20260905044509 | 75 | 192 | 0.0 | 0.0 | 0.00 | 0.00 | 0.00 | 89 | 1016.0 |
| 20260905044004 | 75 | 192 | 0.0 | 1.0 | 0.00 | 0.00 | 0.00 | 89 | 1016.0 |
| 20260905043503 | 75 | 192 | 0.0 | 5.0 | 0.00 | 0.00 | 0.00 | 89 | 1016.0 |
| 20260905043008 | 75 | 192 | 1.0 | 5.0 | 0.00 | 0.00 | 0.00 | 89 | 1016.1 |
| 20260905042508 | 75 | 192 | 4.0 | 5.0 | 0.00 | 0.00 | 0.00 | 88 | 1016.1 |
| 20260905042006 | 75 | 192 | 2.0 | 4.0 | 0.00 | 0.00 | 0.00 | 88 | 1016.1 |
| 20260905041516 | 76 | 192 | 3.0 | 4.0 | 0.00 | 0.00 | 0.00 | 88 | 1016.1 |
| 20260905041007 | 76 | 192 | 0.0 | 0.0 | 0.00 | 0.00 | 0.00 | 87 | 1016.0 |
| 20260905040508 | 76 | 192 | 0.0 | 1.0 | 0.00 | 0.00 | 0.00 | 87 | 1015.9 |
| 20260905040028 | 76 | 192 | 0.0 | 2.0 | 0.00 | 0.00 | 0.00 | 87 | 1016.0 |
| 20260905035511 | 76 | 192 | 0.0 | 2.0 | 0.00 | 0.00 | 0.00 | 87 | 1016.1 |
| 20260905035003 | 76 | 192 | 0.0 | 1.0 | 0.00 | 0.00 | 0.00 | 87 | 1016.1 |
| 20260905034506 | 77 | 192 | 0.0 | 1.0 | 0.00 | 0.00 | 0.00 | 86 | 1016.2 |
| 20260905034003 | 77 | 192 | 0.0 | 2.0 | 0.00 | 0.00 | 0.00 | 86 | 1016.1 |
| 20260905033503 | 77 | 192 | 0.0 | 2.0 | 0.00 | 0.00 | 0.00 | 86 | 1016.1 |
| 20260905033006 | 77 | 192 | 1.0 | 2.0 | 0.00 | 0.00 | 0.00 | 86 | 1016.1 |
| 20260905032508 | 77 | 192 | 1.0 | 2.0 | 0.00 | 0.00 | 0.00 | 86 | 1016.2 |
| 20260905032005 | 77 | 192 | 0.0 | 1.0 | 0.00 | 0.00 | 0.00 | 86 | 1016.3 |
| 20260905031512 | 77 | 192 | 0.0 | 0.0 | 0.00 | 0.00 | 0.00 | 86 | 1016.4 |
| 20260905031003 | 77 | 192 | 0.0 | 1.0 | 0.00 | 0.00 | 0.00 | 85 | 1016.5 |
| 20260905030506 | 77 | 192 | 0.0 | 1.0 | 0.00 | 0.00 | 0.00 | 85 | 1016.6 |
| 20260905030016 | 77 | 192 | 0.0 | 1.0 | 0.00 | 0.00 | 0.00 | 85 | 1016.5 |
| 20260905025511 | 77 | 192 | 0.0 | 3.0 | 0.00 | 0.00 | 0.00 | 85 | 1016.5 |
| 20260905025012 | 78 | 192 | 0.0 | 3.0 | 0.00 | 0.00 | 0.00 | 85 | 1016.6 |
| 20260905024523 | 78 | 192 | 1.0 | 3.0 | 0.00 | 0.00 | 0.00 | 85 | 1016.7 |
| 20260905024014 | 78 | 192 | 1.0 | 3.0 | 0.00 | 0.00 | 0.00 | 84 | 1016.6 |
| 20260905023503 | 78 | 192 | 0.0 | 5.0 | 0.00 | 0.00 | 0.00 | 84 | 1016.6 |